STARLINK-1815, 46713

Orbit data source: Space-Track

STARLINK-1815, 46713 is a payload satellite owned by SpaceX/Seattle (US) in LEO that was launched on Sun, 18 Oct 2020 UTC via an FALCON 9 launch vehicle from the Air Force Eastern Test Range (AFETR). Payload-class satellites include a variety of spacecraft equipped with specific instruments for various scientific and technological missions. These include communications satellites like Starlink; space stations such as the ISS; scientific satellites like the Hubble; Earth observation satellites from companies like Planet Labs, Umbra, and HawkEye 360; GPS; miniature CubeSats for education and research; and military/defense satellites.

Loading next visibility...
Identifier
46713, 2020-073AV
Orbit
LEO
Country
Flag of USUS
Related business
Manufacturer
SpaceX/Seattle
Mission
Operational Commercial Communications
Bus & Motor
STARLINK, Unknown motor
Mass
260 kg wet, ~248 kg dry
Launch date (UTC)
2020-10-18 (5 years ago)
Launch vehicle
FALCON 9
Launch site
Air Force Eastern Test Range (AFETR)
Object type
Payload
Rocket body
Debris
Shape & HBR
Box + 1 Pan, 10.1 m
Radar Cross Section
13.562 m², Large (>1 m²)

Expand to show TLE details & history
Last TLE update: 17 hours ago

TLE from 17 hours ago
0 STARLINK-1815
1 46713U 20073AV  25286.45119599  .00017341  00000-0  11799-2 0  9994
2 46713  53.0553 182.5884 0001040  80.4517 279.6589 15.06409025274933
Epoch: 2025-10-13T10:49Z
TLE epoch observation values (Epoch: 2025-10-13T10:49:43.333Z)
Latitude
-0.00007°
Longitude
-2.09599°
Altitude
547.942 km
Speed
7.589 km/s
True Right ascension
12h 10m 21s
True Declination
0° 00' 00"
Sunlit
Object was in daylight at epoch
Visualization orbit readout
Latitude
Unknown
Longitude
Unknown
Altitude
Unknown
Speed
Unknown
Apparent Right ascension
Unknown
Apparent Declination
Unknown
Sunlit
N/A
Visualization observer readout
Local Sidereal Time
22:09:58
Azimuth
Unknown
Elevation
Unknown
Doppler factor
Unknown
Orbital elements
Apogee altitude
548.175 km
Perigee altitude
546.734 km
Semi-major axis
6,925.591 km
Eccentricity
0.0001
Inclination
53.0553°
RAAN
182.5884°
Arg. of periapsis
80.4517°
True anomaly
279.64715°
Mean anomaly
279.6589°
Eccentric anomaly
279.65303°
Mean motion
3.76581 °/min
Orbital period
95.6 mins
BSTAR
0.0011799
Loading maneuver chart data...
Computing Atmospheric mass density...
Loading historical data...
Loading historical data...
Loading historical data...
Loading historical data...
Loading historical data...
Loading historical data...
Loading historical data...

Documentation

Showing up to 5 results
|